Time,TemperatureF,DewpointF,PressureIn,WindDirection,WindDirectionDegrees,WindSpeedMPH,WindSpeedGustMPH,Humidity,HourlyPrecipIn,Conditions,Clouds,dailyrainin,SoftwareType,DateUTC
2013-06-29 12:12:00,78.0,72.0,29.61,WSW,248,0.0,0.0,81,0.00,,,0.00,,2013-06-29 16:12:00,
2013-06-29 12:23:00,78.0,71.0,29.61,South,180,0.0,7.0,79,0.00,,,0.00,,2013-06-29 16:23:00,
2013-06-29 12:43:00,80.0,71.0,29.61,SW,225,0.0,0.0,73,0.00,,,0.00,,2013-06-29 16:43:00,
2013-06-29 16:12:00,82.0,68.0,29.64,SE,135,4.0,4.0,62,0.00,,,0.00,,2013-06-29 20:12:00,
2013-06-29 16:23:00,82.0,68.0,29.64,SE,143,6.0,8.0,63,0.00,,,0.00,,2013-06-29 20:23:00,
2013-06-29 16:33:00,82.0,68.0,29.64,South,180,0.0,6.0,63,0.00,,,0.00,,2013-06-29 20:33:00,
2013-06-29 16:43:00,82.0,68.0,29.64,WSW,248,6.0,8.0,63,0.00,,,0.00,,2013-06-29 20:43:00,
2013-06-29 16:52:00,81.0,68.0,29.64,WSW,248,0.0,2.0,65,0.00,,,0.00,,2013-06-29 20:52:00,
2013-06-29 17:02:00,83.0,69.0,29.65,WSW,248,9.0,9.0,62,0.00,,,0.00,,2013-06-29 21:02:00,
2013-06-29 17:11:00,83.0,68.0,29.65,SE,135,6.0,9.0,61,0.00,,,0.00,,2013-06-29 21:11:00,
2013-06-29 17:22:00,80.0,67.0,29.65,WSW,248,7.0,7.0,64,0.00,,,0.00,,2013-06-29 21:22:00,
2013-06-29 17:32:00,79.0,67.0,29.65,WSW,248,2.0,2.0,66,0.00,,,0.00,,2013-06-29 21:32:00,
2013-06-29 17:42:00,78.0,66.0,29.64,WSW,248,3.0,7.0,67,0.00,,,0.00,,2013-06-29 21:42:00,
2013-06-29 17:52:00,77.0,66.0,29.65,SW,225,0.0,4.0,69,0.00,,,0.00,,2013-06-29 21:52:00,
2013-06-29 18:01:00,77.0,66.0,29.65,SSE,151,5.0,6.0,70,0.00,,,0.00,,2013-06-29 22:01:00,
2013-06-29 18:11:00,76.0,66.0,29.65,WSW,248,0.0,6.0,71,0.00,,,0.00,,2013-06-29 22:11:00,
2013-06-29 18:22:00,76.0,67.0,29.65,WSW,248,2.0,7.0,73,0.00,,,0.00,,2013-06-29 22:22:00,
2013-06-29 18:33:00,77.0,68.0,29.65,SE,135,4.0,7.0,73,0.00,,,0.00,,2013-06-29 22:33:00,
2013-06-29 18:43:00,77.0,68.0,29.65,SSE,158,6.0,6.0,73,0.00,,,0.00,,2013-06-29 22:43:00,
2013-06-29 18:53:00,76.0,67.0,29.65,WSW,248,0.0,7.0,75,0.00,,,0.00,,2013-06-29 22:53:00,
2013-06-29 19:02:00,75.0,67.0,29.66,SE,135,0.0,2.0,76,0.00,,,0.00,,2013-06-29 23:02:00,
2013-06-29 19:12:00,75.0,67.0,29.66,SSE,158,6.0,7.0,77,0.00,,,0.00,,2013-06-29 23:12:00,
2013-06-29 19:23:00,74.0,67.0,29.66,SSE,152,4.0,7.0,78,0.00,,,0.00,,2013-06-29 23:23:00,
2013-06-29 19:34:00,73.0,66.0,29.66,SSE,158,0.0,6.0,80,0.00,,,0.00,,2013-06-29 23:34:00,
2013-06-29 19:43:00,73.0,66.0,29.66,South,180,0.0,7.0,80,0.00,,,0.00,,2013-06-29 23:43:00,
2013-06-29 19:52:00,73.0,67.0,29.67,ESE,113,0.0,0.0,81,0.00,,,0.00,,2013-06-29 23:52:00,
2013-06-29 20:02:00,73.0,67.0,29.67,SSE,158,0.0,6.0,82,0.00,,,0.00,,2013-06-30 00:02:00,
2013-06-29 20:12:00,73.0,67.0,29.67,South,180,0.0,0.0,82,0.00,,,0.00,,2013-06-30 00:12:00,
2013-06-29 20:22:00,72.0,67.0,29.68,SSE,158,0.0,0.0,83,0.00,,,0.00,,2013-06-30 00:22:00,
2013-06-29 20:33:00,72.0,67.0,29.68,SSE,158,5.0,5.0,83,0.00,,,0.00,,2013-06-30 00:33:00,
2013-06-29 20:43:00,72.0,67.0,29.68,WSW,248,0.0,5.0,83,0.00,,,0.00,,2013-06-30 00:43:00,
2013-06-29 20:52:00,72.0,67.0,29.69,SE,135,6.0,6.0,84,0.00,,,0.00,,2013-06-30 00:52:00,
2013-06-29 21:01:00,71.0,66.0,29.69,SSW,203,0.0,0.0,84,0.00,,,0.00,,2013-06-30 01:01:00,
2013-06-29 21:12:00,71.0,66.0,29.70,SSE,158,0.0,0.0,84,0.00,,,0.00,,2013-06-30 01:12:00,
2013-06-29 21:22:00,71.0,66.0,29.70,SW,225,0.0,3.0,85,0.00,,,0.00,,2013-06-30 01:22:00,
2013-06-29 21:33:00,71.0,66.0,29.70,SW,225,0.0,0.0,85,0.00,,,0.00,,2013-06-30 01:33:00,
2013-06-29 21:44:00,71.0,66.0,29.71,South,180,0.0,4.0,85,0.00,,,0.00,,2013-06-30 01:44:00,
2013-06-29 21:53:00,71.0,66.0,29.71,SW,225,0.0,2.0,85,0.00,,,0.00,,2013-06-30 01:53:00,
2013-06-29 22:02:00,71.0,67.0,29.71,SSE,158,2.0,6.0,86,0.00,,,0.00,,2013-06-30 02:02:00,
2013-06-29 22:11:00,71.0,67.0,29.72,SW,225,0.0,0.0,86,0.00,,,0.00,,2013-06-30 02:11:00,
2013-06-29 22:24:00,71.0,67.0,29.72,SE,135,0.0,3.0,86,0.00,,,0.00,,2013-06-30 02:24:00,
2013-06-29 22:34:00,71.0,67.0,29.72,SE,135,8.0,8.0,87,0.00,,,0.00,,2013-06-30 02:34:00,
2013-06-29 22:43:00,71.0,67.0,29.72,SE,135,0.0,8.0,87,0.00,,,0.00,,2013-06-30 02:43:00,
2013-06-29 22:53:00,71.0,67.0,29.72,SE,135,8.0,8.0,87,0.00,,,0.00,,2013-06-30 02:53:00,
2013-06-29 23:02:00,71.0,67.0,29.72,WSW,248,0.0,8.0,87,0.00,,,0.00,,2013-06-30 03:02:00,
2013-06-29 23:12:00,71.0,67.0,29.72,SE,135,7.0,7.0,87,0.00,,,0.00,,2013-06-30 03:12:00,
2013-06-29 23:23:00,71.0,67.0,29.72,SE,135,0.0,7.0,87,0.00,,,0.00,,2013-06-30 03:23:00,
2013-06-29 23:33:00,70.0,66.0,29.72,SSE,150,2.0,2.0,87,0.00,,,0.00,,2013-06-30 03:33:00,
2013-06-29 23:43:00,70.0,66.0,29.73,SW,225,0.0,2.0,87,0.00,,,0.00,,2013-06-30 03:43:00,
2013-06-29 23:53:00,70.0,66.0,29.73,SE,135,0.0,3.0,88,0.00,,,0.00,,2013-06-30 03:53:00,